Location: Ar Ranvel
(48.3000°N, 4.8833°W)
Time: 09:45:41
(UTC+00:00)

Cosmos 2333 Rocket - Pass Details

Date: 16 June 2021
Orbit: 841 x 861 km, 70.8° (Epoch: 01 August)

Event Time Altitude Azimuth Distance (km) Brightness Sun altitude
Exits shadow 22:50:57 11° 206° (SSW) 2,428 4.2 -15.6°
Maximum altitude 22:56:32 89° 123° (ESE) 863 2.2 -15.9°
Drops below altitude 10° 23:02:18 10° 28° (NNE) 2,493 5.3 -16.2°
Sets 23:04:45 0° 29° (NNE) 3,430 6.0 -16.3°
